Вернуться в каталог

STARLINK-3934

АктивенСвязьVLEO
NORAD 52675·PAYLOAD·🇺🇸 United States

Запущен May 18, 2022 с Cape Canaveral Space Force Station

Loading…

Ближайшие Пролёты (ближайшие 24 часа)

TLE

СвежийSource: CelesTrak SupGP

Эпоха: Sep 14, 2026, 14:03 UTC

1 52675C 22053V   26257.58590278 -.00016399  00000+0 -52733-3 0  2572
2 52675  53.1600   7.4595 0000943  85.1295 288.4474 15.31712520    13

Отслеживайте STARLINK-3934 в реальном времени с AllMySat

Download on the App Store